Regional Weather Roundup
Issued by NWS

Home | Current Version | Previous Version | Graphics & Text | Print | Product List | Glossary On
Versions: 1 2 3 4 5 6 7 8 9 10 11 12 13 14 15 16 17 18 19 20 21 22 23 24 25 26 27 28 29 30 31 32 33 34 35 36 37 38 39 40 41 42 43 44 45 46 47 48 49 50
000
ASUS43 KFSD 201510
RWRSD

WEATHER ROUNDUP FOR SOUTH DAKOTA
NATIONAL WEATHER SERVICE SIOUX FALLS SD
900 AM CST THU NOV 20 2014

NOTE: "FAIR" INDICATES FEW OR NO CLOUDS BELOW 12,000 FEET WITH NO
SIGNIFICANT WEATHER AND/OR OBSTRUCTIONS TO VISIBILITY.


SDZ001>005-009-010-012>017-201600-
NORTHWEST AND NORTH CENTRAL SOUTH DAKOTA

CITY           SKY/WX    TMP DP  RH WIND       PRES   REMARKS
BUFFALO          N/A     15  12  88 S10       29.90S WCI   2
FAITH            N/A     15  13  91 S6        30.05R WCI   6
MOBRIDGE       MOCLDY    13   7  77 NW3       30.09R
$$

SDZ012>016-024>037-041>051-057-063-072>074-201600-
SOUTHWEST AND SOUTH CENTRAL SOUTH DAKOTA

CITY           SKY/WX    TMP DP  RH WIND       PRES   REMARKS
RAPID CTY ARPT PTCLDY    14   9  80 CALM      30.00S FOG
PIERRE         CLOUDY    18  12  77 SW3       30.12R
CUSTER         PTCLDY    25  11  55 CALM      29.92S
ELLSWORTH AFB  CLEAR     15  12  90 S2        29.99S
PHILIP         PTCLDY    17  13  84 SE3       30.08F
PINE RIDGE     SUNNY      6   2  83 CALM      30.02R
SPEARFISH      FAIR      19  14  79 SW3       29.94F
WINNER         CLOUDY    19  12  74 CALM      30.13R
$$

SDZ004>011-016>023-039-040-201600-
NORTHEAST SOUTH DAKOTA

CITY           SKY/WX    TMP DP  RH WIND       PRES   REMARKS
ABERDEEN       SUNNY      8   1  73 NW6       30.16R WCI  -2
WATERTOWN      MOSUNNY    4   0  83 NW3       30.10R
SISSETON         N/A      7   1  76 NW7       30.14R WCI  -5
$$

SDZ017-020-022-023-036>040-048>070-201600-
SOUTHEAST SOUTH DAKOTA

CITY           SKY/WX    TMP DP  RH WIND       PRES   REMARKS
SIOUX FALLS    MOSUNNY    9   4  80 NW8       30.16R WCI  -3
HURON          MOSUNNY    6   3  87 CALM      30.18R
CHAMBERLAIN    FLURRIES  16  12  84 SW3       30.15R
MITCHELL       CLOUDY    16  11  80 W6        30.19R WCI   7
YANKTON        MOSUNNY   18  10  73 NW3       30.21R
$$

ABBREVIATIONS USED IN REMARKS
   TC - TEMPERATURE IN CELSIUS
  WCI - WIND CHILL INDEX
   HX - HEAT INDEX
  VSB - VISIBILITY



USA.gov is the U.S. government's official web portal to all federal, state and local government web resources and services.